Location: Aufkirchen
(47.9603°N, 11.3653°E)
Time: 17:04:16
(UTC+01:00)

Transit 4A - Pass Details

Date: 05 December 2020
Orbit: 864 x 980 km, 66.8° (Epoch: 26 January)

Event Time Altitude Azimuth Distance (km) Brightness Sun altitude
Rises 06:14:01 0° 190° (S) 3,620 11.1 -15.0°
Reaches altitude 10° 06:16:38 10° 185° (S) 2,691 10.5 -14.6°
Maximum altitude 06:22:35 45° 114° (ESE) 1,297 9.2 -13.7°
Drops below altitude 10° 06:28:38 10° 44° (NE) 2,739 10.7 -12.7°
Sets 06:31:19 0° 39° (NE) 3,691 11.3 -12.3°
